Location: Evergreen Manor
(41.4083°N, 81.4939°W)
Time: 10:05:57
(UTC+00:00)

STARLINK 1062 - Pass Details

Date: 11 December 2019
Orbit: 549 x 551 km, 53.0° (Epoch: 27 January)

Event Time Altitude Azimuth Distance (km) Brightness Sun altitude
Exits shadow 09:38:45 18° 74° (ENE) 1,390 6.3 -33.4°
Drops below altitude 10° 09:40:08 10° 87° (E) 1,834 7.1 -33.2°
Enters shadow 10:39:51 -65° 304° (NW) 12,142 10.4 -22.1°
Maximum altitude 11:16:16 57° 223° (SW) 656 3.8 -15.5°
